Location: Unspecified
(9.9280°N, 84.0910°W)
Time: 12:26:16
(UTC+00:00)

ADEOS Rocket - Pass Details

Date: 17 January 2020
Orbit: 859 x 1306 km, 98.7° (Epoch: 17 February)

Event Time Altitude Azimuth Distance (km) Brightness Sun altitude
Rises 23:41:59 0° 27° (NNE) 3,949 5.7 -2.5°
Reaches altitude 10° 23:44:40 10° 35° (NE) 3,051 5.1 -3.1°
Maximum altitude 23:51:11 40° 103° (ESE) 1,727 4.0 -4.6°
Drops below altitude 10° 23:58:11 10° 169° (S) 3,278 5.9 -6.2°
Sets 00:01:07 0° 176° (S) 4,272 6.6 -6.9°
